星链-34973 (STARLINK-34973)

导读 | 豆包AI

STARLINK-34973是美国于2025年8月18日发射的Starlink星链卫星,隶属于SpaceX星链互联网星座项目。作为低轨通信卫星,它承担着为全球用户提供高速低延迟宽带互联网服务的任务,尤其覆盖偏远区域,进一步扩充了星链星座的服务覆盖范围与通信容量。

Basic Information
目录编号:
65250
目录名称:
STARLINK-34973
国际标识:
2025-179R
轨道中心:
EARTH
卫星名称:
星链-34973
卫星全名:
星链-34973 (STARLINK-34973)
卫星状态:
在轨 (已飞行254 天)
发射日期:
2025-08-18 UTC
国别 :
美国 (US)
星等 :
--
Orbit Information
数据来源 国际轨道数据 AOE轨道数据
星历时间 2026-04-29T09:46:50+0800
9小时前
查看轨道信息
2026-04-22T20:00:00+0800
6天前
查看轨道信息
半长轴 6927.594km 6927.675km
偏心率 0.0001737 0.0001338
轨道倾角 97.560° 97.587°
近地点辐角 189.548° 135.767°
升交点赤经 162.664° 156.212°
平近点角 170.571° 252.448°
近地点 548.253km 548.611km
远地点 550.661km 550.465km
周期 95.639分钟 95.640分钟
每日圈数 15.056678 15.056413
Detailed Information
固有亮度:
5
最大亮度:
2.5
卫星平台:
Starlink V1.0
覆盖范围:
全球
运营商:
太空探索技术公司
运营商所在国:
美国
制造商(研发单位):
太空探索技术公司
制造商所在国:
美国
使用方式:
暂无
Satellite Introduction
Starlink 计划是 SpaceX 推出的全球卫星互联网项目,通过发射低轨道卫星,为全球尤其是偏远地区提供高速、低延迟的互联网服务。自 2019 年起,Starlink 已部署数千颗卫星,旨在缩小全球数字鸿沟,推动互联网普及。该项目还为军事、航空等行业提供通信支持,带来广泛经济效益。
2D Orbit Map
3D Orbit Map
Orbit Altitude Analysis Chart
Orbit Inclination Analysis Chart
Orbit Comprehensive Analysis Chart
View Comprehensive Chart